PGT387U LTFH-LTFJ

Flight info

Callsign PGT387U
Flight time 1h 8m
Altitude 34000
Route HAVZA UW71 ILHAN UT79 NAMAN
Aircraft A320/M-SDE3FGHIRWY/LB1

Departure

Time 2026-05-04 16:40
Airport Samsun-Çarşamba Airport (LTFH)

Arrival

Time 2026-05-04 17:48
Airport Istanbul Sabiha Gökçen International Airport (LTFJ)
Time Latitude Longitude Altitude Speed Heading
2026-05-04 16:18 41.25871 36.55524 25 ft 0 kts 221°
2026-05-04 16:28 41.25872 36.55526 25 ft 2 kts 221°
2026-05-04 16:29 41.25923 36.55564 28 ft 2 kts 135°
2026-05-04 16:30 41.25929 36.55556 29 ft 0 kts 133°
2026-05-04 16:33 41.25916 36.55575 28 ft 6 kts 133°
2026-05-04 16:33 41.25906 36.55708 28 ft 12 kts 43°
2026-05-04 16:34 41.25967 36.55784 28 ft 0 kts 43°
2026-05-04 16:34 41.25986 36.55807 24 ft 7 kts 43°
2026-05-04 16:35 41.25860 36.56137 24 ft 22 kts 133°
2026-05-04 16:35 41.25523 36.56607 24 ft 26 kts 133°
2026-05-04 16:36 41.25393 36.56789 23 ft 28 kts 133°
2026-05-04 16:36 41.25108 36.57186 29 ft 30 kts 134°
2026-05-04 16:37 41.24805 36.57609 25 ft 33 kts 133°
2026-05-04 16:37 41.24644 36.57833 23 ft 34 kts 133°
2026-05-04 16:37 41.24526 36.57983 24 ft 6 kts 13°
2026-05-04 16:38 41.24565 36.57942 25 ft 0 kts 313°
2026-05-04 16:39 41.24853 36.57544 24 ft 93 kts 314°
2026-05-04 16:39 41.26205 36.55699 547 ft 153 kts 316°
2026-05-04 16:40 41.27700 36.53697 1975 ft 160 kts 316°
2026-05-04 16:40 41.28270 36.50669 2677 ft 207 kts 243°
2026-05-04 16:41 41.26427 36.47141 3490 ft 257 kts 232°
2026-05-04 16:41 41.23162 36.40992 6038 ft 281 kts 247°
2026-05-04 16:42 41.20973 36.33651 8935 ft 286 kts 246°
2026-05-04 16:43 41.19521 36.28616 10323 ft 308 kts 246°
2026-05-04 16:43 41.17876 36.22887 10794 ft 355 kts 247°
2026-05-04 16:43 41.16976 36.19738 11126 ft 371 kts 247°
2026-05-04 16:44 41.13216 36.06601 13908 ft 390 kts 246°
2026-05-04 16:45 41.11265 35.99854 15157 ft 396 kts 247°
2026-05-04 16:46 41.08258 35.89489 16990 ft 406 kts 247°
2026-05-04 16:46 41.06203 35.82463 18132 ft 412 kts 247°
2026-05-04 16:47 41.04108 35.75338 19104 ft 418 kts 247°
2026-05-04 16:47 41.01974 35.68117 20065 ft 423 kts 247°
2026-05-04 16:48 40.98826 35.57122 21448 ft 432 kts 247°
2026-05-04 16:48 40.97766 35.53387 21883 ft 434 kts 247°
2026-05-04 16:49 40.95616 35.45864 22759 ft 439 kts 247°
2026-05-04 16:49 40.93430 35.38264 23581 ft 445 kts 247°
2026-05-04 16:50 40.91201 35.30574 24244 ft 451 kts 247°
2026-05-04 16:50 40.88959 35.22843 24690 ft 454 kts 244°
2026-05-04 16:51 40.86685 35.14998 25322 ft 459 kts 244°
2026-05-04 16:51 40.85536 35.11046 25625 ft 461 kts 244°
2026-05-04 16:51 40.83216 35.03092 26227 ft 467 kts 244°
2026-05-04 16:52 40.80866 34.95064 26856 ft 470 kts 244°
2026-05-04 16:52 40.79688 34.91038 27288 ft 469 kts 244°
2026-05-04 16:53 40.77338 34.83038 28126 ft 467 kts 243°
2026-05-04 16:53 40.73817 34.71138 29377 ft 465 kts 243°
2026-05-04 16:54 40.72631 34.67171 29801 ft 465 kts 242°
2026-05-04 16:55 40.67851 34.51387 31209 ft 462 kts 241°
2026-05-04 16:55 40.65456 34.43526 31966 ft 461 kts 241°
2026-05-04 16:56 40.63078 34.35693 32699 ft 459 kts 240°
2026-05-04 16:56 40.59516 34.24045 33761 ft 456 kts 240°
2026-05-04 16:57 40.55935 34.12415 33797 ft 457 kts 240°
2026-05-04 16:58 40.51177 33.96978 33805 ft 456 kts 240°
2026-05-04 17:00 40.45413 33.72956 33816 ft 473 kts 256°
2026-05-04 17:00 40.46340 33.59804 33826 ft 493 kts 277°
2026-05-04 17:01 40.47950 33.51039 33835 ft 494 kts 277°
2026-05-04 17:02 40.51200 33.33462 33859 ft 495 kts 277°
2026-05-04 17:03 40.53586 33.20335 33888 ft 494 kts 276°
2026-05-04 17:03 40.55700 33.08607 33907 ft 495 kts 276°
2026-05-04 17:04 40.58857 32.90988 33919 ft 492 kts 276°
2026-05-04 17:05 40.61955 32.73525 33936 ft 490 kts 276°
2026-05-04 17:06 40.64269 32.60414 33947 ft 489 kts 277°
2026-05-04 17:07 40.66309 32.48794 33953 ft 488 kts 277°
2026-05-04 17:07 40.68077 32.38612 33961 ft 488 kts 277°
2026-05-04 17:08 40.70320 32.25574 33966 ft 487 kts 277°
2026-05-04 17:09 40.72001 32.16901 33972 ft 491 kts 283°
2026-05-04 17:09 40.74157 32.08334 33982 ft 491 kts 283°
2026-05-04 17:10 40.79454 31.87020 34000 ft 489 kts 284°
2026-05-04 17:11 40.81558 31.78495 34007 ft 488 kts 284°
2026-05-04 17:12 40.84708 31.65703 34010 ft 487 kts 284°
2026-05-04 17:13 40.89896 31.44475 34018 ft 485 kts 284°
2026-05-04 17:14 40.93795 31.27467 34014 ft 483 kts 283°
2026-05-04 17:15 40.96612 31.14650 34016 ft 483 kts 283°
2026-05-04 17:16 41.00398 30.97643 34013 ft 482 kts 283°
2026-05-04 17:17 41.03943 30.80531 34011 ft 482 kts 283°
2026-05-04 17:18 41.08253 30.63679 34006 ft 484 kts 291°
2026-05-04 17:19 41.13377 30.47171 34005 ft 484 kts 291°
2026-05-04 17:20 41.18472 30.30631 32696 ft 493 kts 291°
2026-05-04 17:20 41.21062 30.22082 30515 ft 504 kts 287°
2026-05-04 17:20 41.21959 30.17664 30260 ft 487 kts 278°
2026-05-04 17:21 41.22776 30.08912 29198 ft 471 kts 274°
2026-05-04 17:21 41.23396 30.00332 27980 ft 459 kts 267°
2026-05-04 17:22 41.23140 29.96147 27461 ft 449 kts 257°
2026-05-04 17:22 41.22348 29.92184 26869 ft 441 kts 247°
2026-05-04 17:23 41.17369 29.82387 25047 ft 424 kts 224°
2026-05-04 17:23 41.15336 29.79557 24420 ft 423 kts 225°
2026-05-04 17:23 41.11315 29.73957 23223 ft 420 kts 226°
2026-05-04 17:24 41.09334 29.71194 22617 ft 417 kts 226°
2026-05-04 17:24 41.03405 29.62916 20995 ft 407 kts 226°
2026-05-04 17:25 41.01453 29.60210 20482 ft 404 kts 226°
2026-05-04 17:25 40.97612 29.54960 19977 ft 385 kts 221°
2026-05-04 17:26 40.93124 29.51658 19622 ft 361 kts 194°
2026-05-04 17:26 40.85783 29.51117 18496 ft 351 kts 178°
2026-05-04 17:27 40.80912 29.51151 17675 ft 348 kts 178°
2026-05-04 17:27 40.76084 29.51171 16881 ft 344 kts 177°
2026-05-04 17:28 40.71319 29.51201 16140 ft 341 kts 177°
2026-05-04 17:29 40.64285 29.51256 15096 ft 336 kts 176°
2026-05-04 17:29 40.57311 29.51172 14104 ft 334 kts 185°
2026-05-04 17:30 40.50842 29.47840 13066 ft 332 kts 205°
2026-05-04 17:31 40.46733 29.45193 12359 ft 328 kts 205°
2026-05-04 17:31 40.41532 29.39755 11334 ft 318 kts 243°
2026-05-04 17:32 40.40457 29.34302 10765 ft 303 kts 273°
2026-05-04 17:33 40.40369 29.26142 9895 ft 296 kts 273°
2026-05-04 17:33 40.40355 29.23450 9542 ft 293 kts 277°
2026-05-04 17:34 40.42654 29.16500 8465 ft 273 kts 306°
2026-05-04 17:34 40.43637 29.14368 8099 ft 271 kts 306°
2026-05-04 17:35 40.44288 29.07134 7398 ft 264 kts 270°
2026-05-04 17:35 40.43929 29.02500 6995 ft 249 kts 271°
2026-05-04 17:35 40.43769 29.00244 6686 ft 246 kts 274°
2026-05-04 17:36 40.43990 28.98103 6362 ft 231 kts 298°
2026-05-04 17:36 40.44803 28.96367 6015 ft 219 kts 321°
2026-05-04 17:36 40.46019 28.95261 5639 ft 210 kts 342°
2026-05-04 17:36 40.47423 28.94870 5226 ft 205 kts
2026-05-04 17:37 40.48828 28.95111 4864 ft 203 kts 11°
2026-05-04 17:37 40.50216 28.95429 4503 ft 202 kts 11°
2026-05-04 17:37 40.51605 28.95740 4141 ft 202 kts 10°
2026-05-04 17:37 40.52989 28.96051 3794 ft 201 kts 11°
2026-05-04 17:38 40.54355 28.96358 3641 ft 199 kts 11°
2026-05-04 17:38 40.55725 28.96663 3519 ft 200 kts 11°
2026-05-04 17:38 40.57082 28.96963 3380 ft 200 kts 10°
2026-05-04 17:38 40.58464 28.97270 3288 ft 203 kts 10°
2026-05-04 17:39 40.61288 28.97908 3987 ft 202 kts 10°
2026-05-04 17:39 40.62669 28.98223 3762 ft 201 kts 10°
2026-05-04 17:39 40.64048 28.98536 3424 ft 201 kts 11°
2026-05-04 17:40 40.65424 28.98847 3104 ft 200 kts 10°
2026-05-04 17:40 40.66796 28.99158 3005 ft 200 kts 10°
2026-05-04 17:40 40.68160 28.99466 3006 ft 193 kts 10°
2026-05-04 17:40 40.69425 28.99751 3005 ft 184 kts 10°
2026-05-04 17:41 40.70685 29.00037 3006 ft 183 kts 10°
2026-05-04 17:41 40.71943 29.00325 3011 ft 183 kts 10°
2026-05-04 17:41 40.73198 29.00611 3006 ft 182 kts 10°
2026-05-04 17:41 40.74447 29.00895 3010 ft 183 kts 10°
2026-05-04 17:42 40.75701 29.01192 3007 ft 183 kts 14°
2026-05-04 17:42 40.76866 29.01864 3011 ft 184 kts 32°
2026-05-04 17:42 40.77789 29.03053 3008 ft 189 kts 51°
2026-05-04 17:42 40.78488 29.04507 3010 ft 190 kts 53°
2026-05-04 17:43 40.79194 29.05977 3008 ft 188 kts 53°
2026-05-04 17:43 40.79877 29.07399 3008 ft 181 kts 52°
2026-05-04 17:43 40.80543 29.08798 3004 ft 180 kts 56°
2026-05-04 17:43 40.81098 29.10284 3012 ft 180 kts 58°
2026-05-04 17:44 40.81648 29.11771 3030 ft 181 kts 58°
2026-05-04 17:44 40.82199 29.13262 3011 ft 180 kts 58°
2026-05-04 17:44 40.82750 29.14752 2884 ft 179 kts 58°
2026-05-04 17:44 40.83275 29.16175 2685 ft 167 kts 57°
2026-05-04 17:45 40.83783 29.17544 2472 ft 165 kts 58°
2026-05-04 17:45 40.84284 29.18893 2252 ft 163 kts 58°
2026-05-04 17:45 40.84766 29.20199 2063 ft 153 kts 58°
2026-05-04 17:45 40.85232 29.21455 1835 ft 151 kts 59°
2026-05-04 17:46 40.85694 29.22703 1630 ft 150 kts 59°
2026-05-04 17:46 40.86149 29.23934 1416 ft 146 kts 59°
2026-05-04 17:46 40.86625 29.25217 1193 ft 163 kts 60°
2026-05-04 17:46 40.87088 29.26476 955 ft 148 kts 60°
2026-05-04 17:47 40.87532 29.27678 751 ft 144 kts 61°
2026-05-04 17:47 40.87970 29.28865 564 ft 143 kts 62°
2026-05-04 17:47 40.88403 29.30047 370 ft 142 kts 62°
2026-05-04 17:47 40.88822 29.31169 301 ft 121 kts 63°
2026-05-04 17:48 40.89110 29.31956 308 ft 70 kts 64°
2026-05-04 17:48 40.89268 29.32321 304 ft 28 kts 46°
2026-05-04 17:48 40.89389 29.32451 307 ft 18 kts 34°
2026-05-04 17:48 40.89484 29.32498 308 ft 8 kts 324°
2026-05-04 17:49 40.89495 29.32417 307 ft 12 kts 266°
2026-05-04 17:49 40.89562 29.32348 307 ft 15 kts 359°
2026-05-04 17:49 40.89671 29.32296 307 ft 20 kts 333°
2026-05-04 17:49 40.89764 29.32238 308 ft 12 kts 334°
2026-05-04 17:50 40.89835 29.32192 311 ft 11 kts 334°
2026-05-04 17:50 40.89903 29.32147 313 ft 11 kts 333°
2026-05-04 17:50 40.89951 29.32116 314 ft 11 kts 334°
2026-05-04 17:50 40.90003 29.32083 317 ft 5 kts 334°
2026-05-04 17:51 40.90028 29.32067 319 ft 6 kts 334°
2026-05-04 17:51 40.90084 29.32058 321 ft 12 kts 31°
2026-05-04 17:51 40.90138 29.32187 321 ft 18 kts 64°
2026-05-04 17:51 40.90196 29.32343 320 ft 20 kts 64°
2026-05-04 17:52 40.90260 29.32517 320 ft 22 kts 64°
2026-05-04 17:52 40.90294 29.32585 320 ft 0 kts 31°
2026-05-04 17:54 40.90301 29.32589 320 ft 4 kts 22°
2026-05-04 17:55 40.90357 29.32568 321 ft 13 kts 332°
2026-05-04 17:55 40.90457 29.32502 319 ft 18 kts 334°
2026-05-04 17:55 40.90571 29.32429 321 ft 19 kts 334°
2026-05-04 17:55 40.90627 29.32335 319 ft 12 kts 324°
2026-05-04 17:56 40.90701 29.32286 321 ft 13 kts 334°
2026-05-04 17:56 40.90726 29.32189 321 ft 14 kts 245°
2026-05-04 17:56 40.90683 29.32073 321 ft 15 kts 244°
2026-05-04 17:56 40.90637 29.31947 320 ft 12 kts 244°
2026-05-04 17:57 40.90607 29.31865 321 ft 7 kts 244°
2026-05-04 17:57 40.90595 29.31825 320 ft 3 kts 261°
2026-05-04 17:57 40.90606 29.31808 321 ft 2 kts 326°
2026-05-04 17:57 40.90632 29.31790 321 ft 5 kts 334°
2026-05-04 17:58 40.90662 29.31772 321 ft 4 kts 334°
2026-05-04 17:58 40.90681 29.31759 321 ft 0 kts 334°